Time,TemperatureF,DewpointF,PressureIn,WindDirection,WindDirectionDegrees,WindSpeedMPH,WindSpeedGustMPH,Humidity,HourlyPrecipIn,Conditions,Clouds,dailyrainin,SoftwareType,DateUTC
2013-03-04 00:03:00,39.2,38.5,30.08,North,0,0.0,-999.0,96,0.01,,,-99.99,,2013-03-04 09:03:00,
2013-03-04 00:09:00,39.2,38.4,30.08,North,0,0.0,-999.0,96,0.01,,,-99.99,,2013-03-04 09:09:00,
2013-03-04 00:14:00,39.4,38.6,30.08,North,0,0.0,-999.0,96,0.01,,,-99.99,,2013-03-04 09:14:00,
2013-03-04 00:19:00,39.4,38.6,30.08,North,0,0.0,-999.0,96,0.02,,,-99.99,,2013-03-04 09:19:00,
2013-03-04 00:24:00,39.3,38.5,30.08,North,0,0.0,-999.0,96,0.02,,,-99.99,,2013-03-04 09:24:00,
2013-03-04 00:29:00,39.2,38.4,30.08,North,0,0.0,-999.0,96,0.02,,,-99.99,,2013-03-04 09:29:00,
2013-03-04 00:36:00,39.1,38.3,30.08,North,0,0.0,-999.0,96,0.03,,,-99.99,,2013-03-04 09:36:00,
2013-03-04 00:41:00,39.4,38.6,30.08,North,0,0.0,-999.0,96,0.04,,,-99.99,,2013-03-04 09:41:00,
2013-03-04 00:46:00,39.2,38.4,30.08,North,0,0.0,-999.0,96,0.04,,,-99.99,,2013-03-04 09:46:00,
2013-03-04 00:51:00,39.2,38.4,30.08,North,0,0.0,-999.0,96,0.05,,,-99.99,,2013-03-04 09:51:00,
2013-03-04 00:56:00,39.2,38.4,30.08,North,0,0.0,-999.0,96,0.05,,,-99.99,,2013-03-04 09:56:00,
2013-03-04 01:01:00,39.3,38.5,30.09,North,0,0.0,-999.0,96,0.00,,,-99.99,,2013-03-04 10:01:00,
2013-03-04 01:06:00,39.2,38.4,30.09,North,0,0.0,-999.0,96,0.00,,,-99.99,,2013-03-04 10:06:00,
2013-03-04 01:11:00,39.2,38.4,30.09,North,0,0.0,-999.0,96,0.01,,,-99.99,,2013-03-04 10:11:00,
2013-03-04 01:16:00,39.2,38.4,30.09,North,0,0.0,-999.0,96,0.01,,,-99.99,,2013-03-04 10:16:00,
2013-03-04 01:21:00,39.3,38.5,30.09,North,0,0.0,-999.0,96,0.01,,,-99.99,,2013-03-04 10:21:00,
2013-03-04 01:26:00,39.4,38.5,30.09,North,0,0.0,-999.0,96,0.02,,,-99.99,,2013-03-04 10:26:00,
2013-03-04 01:31:00,39.4,38.5,30.09,North,0,0.0,-999.0,96,0.02,,,-99.99,,2013-03-04 10:31:00,
2013-03-04 01:37:00,39.2,38.4,30.09,North,0,0.0,-999.0,96,0.02,,,-99.99,,2013-03-04 10:37:00,
2013-03-04 01:42:00,39.2,38.3,30.09,North,0,0.0,-999.0,96,0.03,,,-99.99,,2013-03-04 10:42:00,
2013-03-04 01:47:00,39.3,38.4,30.09,North,0,0.0,-999.0,96,0.03,,,-99.99,,2013-03-04 10:47:00,
2013-03-04 01:52:00,39.4,38.5,30.09,North,0,0.0,-999.0,96,0.03,,,-99.99,,2013-03-04 10:52:00,
2013-03-04 01:57:00,39.3,38.4,30.09,North,0,0.0,-999.0,96,0.03,,,-99.99,,2013-03-04 10:57:00,
2013-03-04 02:02:00,39.5,38.6,30.12,North,0,0.0,-999.0,96,0.00,,,-99.99,,2013-03-04 11:02:00,
2013-03-04 02:15:00,39.3,38.3,30.12,North,0,0.0,-999.0,96,0.00,,,-99.99,,2013-03-04 11:15:00,
2013-03-04 02:21:00,39.4,38.3,30.12,North,0,0.0,-999.0,95,0.00,,,-99.99,,2013-03-04 11:21:00,
2013-03-04 02:26:00,39.3,38.3,30.12,North,0,0.0,-999.0,96,0.00,,,-99.99,,2013-03-04 11:26:00,
2013-03-04 02:31:00,39.6,38.6,30.12,North,0,0.0,-999.0,96,0.01,,,-99.99,,2013-03-04 11:31:00,
2013-03-04 02:36:00,39.6,38.6,30.12,North,0,0.0,-999.0,96,0.01,,,-99.99,,2013-03-04 11:36:00,
2013-03-04 02:41:00,39.4,38.5,30.12,North,0,0.0,-999.0,96,0.01,,,-99.99,,2013-03-04 11:41:00,
2013-03-04 02:47:00,39.6,38.7,30.12,North,0,0.0,-999.0,96,0.01,,,-99.99,,2013-03-04 11:47:00,
2013-03-04 02:53:00,39.6,38.7,30.12,North,0,0.0,-999.0,96,0.01,,,-99.99,,2013-03-04 11:53:00,
2013-03-04 02:59:00,39.6,38.7,30.14,North,0,0.0,-999.0,96,0.00,,,-99.99,,2013-03-04 11:59:00,
2013-03-04 03:04:00,39.6,38.6,30.14,North,0,0.0,-999.0,96,0.01,,,-99.99,,2013-03-04 12:04:00,
2013-03-04 03:09:00,39.6,38.6,30.14,North,0,0.0,-999.0,96,0.01,,,-99.99,,2013-03-04 12:09:00,
2013-03-04 03:15:00,39.7,38.8,30.14,North,0,0.0,-999.0,96,0.01,,,-99.99,,2013-03-04 12:15:00,
2013-03-04 03:20:00,39.7,38.8,30.14,North,0,0.0,-999.0,96,0.01,,,-99.99,,2013-03-04 12:20:00,
2013-03-04 03:25:00,39.6,38.7,30.14,North,0,0.0,-999.0,96,0.01,,,-99.99,,2013-03-04 12:25:00,
2013-03-04 03:30:00,39.4,38.5,30.14,North,0,0.0,-999.0,96,0.01,,,-99.99,,2013-03-04 12:30:00,
2013-03-04 03:35:00,39.4,38.5,30.14,North,0,0.0,-999.0,96,0.02,,,-99.99,,2013-03-04 12:35:00,
2013-03-04 03:40:00,39.6,38.7,30.14,North,0,0.0,-999.0,96,0.02,,,-99.99,,2013-03-04 12:40:00,
2013-03-04 03:45:00,39.5,38.6,30.14,North,0,0.0,-999.0,96,0.02,,,-99.99,,2013-03-04 12:45:00,
2013-03-04 03:50:00,39.5,38.6,30.14,North,0,0.0,-999.0,96,0.02,,,-99.99,,2013-03-04 12:50:00,
2013-03-04 03:55:00,39.5,38.6,30.14,North,0,0.0,-999.0,96,0.02,,,-99.99,,2013-03-04 12:55:00,
2013-03-04 04:00:00,39.5,38.6,30.15,North,0,0.0,-999.0,96,0.00,,,-99.99,,2013-03-04 13:00:00,
2013-03-04 04:05:00,39.7,38.9,30.15,North,0,0.0,-999.0,96,0.00,,,-99.99,,2013-03-04 13:05:00,
2013-03-04 04:10:00,39.4,38.5,30.15,North,0,0.0,-999.0,96,0.00,,,-99.99,,2013-03-04 13:10:00,
2013-03-04 04:15:00,39.5,38.6,30.15,North,0,0.0,-999.0,96,0.00,,,-99.99,,2013-03-04 13:15:00,
2013-03-04 04:20:00,39.4,38.5,30.15,North,0,0.0,-999.0,96,0.01,,,-99.99,,2013-03-04 13:20:00,
2013-03-04 04:25:00,39.4,38.5,30.15,North,0,0.0,-999.0,96,0.01,,,-99.99,,2013-03-04 13:25:00,
2013-03-04 04:30:00,39.6,38.7,30.15,North,0,0.0,-999.0,96,0.01,,,-99.99,,2013-03-04 13:30:00,
2013-03-04 04:35:00,39.3,38.4,30.15,North,0,0.0,-999.0,96,0.02,,,-99.99,,2013-03-04 13:35:00,
2013-03-04 04:40:00,39.5,38.6,30.15,North,0,0.0,-999.0,96,0.02,,,-99.99,,2013-03-04 13:40:00,
2013-03-04 04:45:00,39.5,38.6,30.15,North,0,0.0,-999.0,96,0.03,,,-99.99,,2013-03-04 13:45:00,
2013-03-04 04:50:00,39.6,38.7,30.15,North,0,0.0,-999.0,96,0.03,,,-99.99,,2013-03-04 13:50:00,
2013-03-04 04:55:00,39.6,38.7,30.15,North,0,0.0,-999.0,96,0.03,,,-99.99,,2013-03-04 13:55:00,
2013-03-04 05:00:00,39.4,38.5,30.16,North,0,0.0,-999.0,96,0.00,,,-99.99,,2013-03-04 14:00:00,
2013-03-04 05:05:00,39.5,38.5,30.16,North,0,0.0,-999.0,96,0.01,,,-99.99,,2013-03-04 14:05:00,
2013-03-04 05:11:00,39.6,38.7,30.16,North,0,0.0,-999.0,96,0.01,,,-99.99,,2013-03-04 14:11:00,
2013-03-04 05:16:00,39.5,38.5,30.16,North,0,0.0,-999.0,96,0.01,,,-99.99,,2013-03-04 14:16:00,
2013-03-04 05:21:00,39.4,38.5,30.16,North,0,0.0,-999.0,96,0.02,,,-99.99,,2013-03-04 14:21:00,
2013-03-04 05:26:00,39.6,38.6,30.16,North,0,0.0,-999.0,96,0.02,,,-99.99,,2013-03-04 14:26:00,
2013-03-04 05:31:00,39.5,38.5,30.16,North,0,0.0,-999.0,96,0.02,,,-99.99,,2013-03-04 14:31:00,
2013-03-04 05:36:00,39.6,38.6,30.16,North,0,0.0,-999.0,96,0.03,,,-99.99,,2013-03-04 14:36:00,
2013-03-04 05:41:00,39.3,38.4,30.16,North,0,0.0,-999.0,96,0.03,,,-99.99,,2013-03-04 14:41:00,
2013-03-04 05:46:00,39.4,38.5,30.16,North,0,0.0,-999.0,96,0.03,,,-99.99,,2013-03-04 14:46:00,
2013-03-04 05:51:00,39.4,38.5,30.16,North,0,0.0,-999.0,96,0.03,,,-99.99,,2013-03-04 14:51:00,
2013-03-04 05:56:00,39.4,38.5,30.16,North,0,0.0,-999.0,96,0.04,,,-99.99,,2013-03-04 14:56:00,
2013-03-04 06:01:00,39.3,38.3,30.18,North,0,0.0,-999.0,96,0.00,,,-99.99,,2013-03-04 15:01:00,
2013-03-04 06:06:00,39.4,38.4,30.18,North,0,0.0,-999.0,96,0.00,,,-99.99,,2013-03-04 15:06:00,
2013-03-04 06:11:00,39.4,38.4,30.18,North,0,0.0,-999.0,96,0.01,,,-99.99,,2013-03-04 15:11:00,
2013-03-04 06:16:00,39.4,38.4,30.18,North,0,0.0,-999.0,96,0.01,,,-99.99,,2013-03-04 15:16:00,
2013-03-04 06:21:00,39.2,38.2,30.18,North,0,0.0,-999.0,96,0.01,,,-99.99,,2013-03-04 15:21:00,
2013-03-04 06:26:00,39.3,38.4,30.18,North,0,0.0,-999.0,96,0.01,,,-99.99,,2013-03-04 15:26:00,
2013-03-04 06:31:00,39.3,38.3,30.18,North,0,0.0,-999.0,96,0.02,,,-99.99,,2013-03-04 15:31:00,
2013-03-04 06:36:00,39.2,38.3,30.18,North,0,0.0,-999.0,96,0.02,,,-99.99,,2013-03-04 15:36:00,
2013-03-04 06:41:00,39.2,38.3,30.18,North,0,0.0,-999.0,96,0.02,,,-99.99,,2013-03-04 15:41:00,
2013-03-04 06:46:00,39.3,38.3,30.18,North,0,0.0,-999.0,96,0.02,,,-99.99,,2013-03-04 15:46:00,
2013-03-04 06:51:00,39.2,38.2,30.18,North,0,0.0,-999.0,96,0.02,,,-99.99,,2013-03-04 15:51:00,
2013-03-04 06:56:00,39.2,38.2,30.18,North,0,0.0,-999.0,96,0.02,,,-99.99,,2013-03-04 15:56:00,
2013-03-04 07:01:00,39.1,38.1,30.19,North,0,0.0,-999.0,96,0.00,,,-99.99,,2013-03-04 16:01:00,
2013-03-04 07:06:00,39.2,38.3,30.19,North,0,0.0,-999.0,96,0.00,,,-99.99,,2013-03-04 16:06:00,
2013-03-04 07:11:00,39.1,38.1,30.19,North,0,0.0,-999.0,96,0.00,,,-99.99,,2013-03-04 16:11:00,
2013-03-04 07:16:00,39.1,38.1,30.19,North,0,0.0,-999.0,96,0.00,,,-99.99,,2013-03-04 16:16:00,
2013-03-04 07:21:00,39.2,38.1,30.19,North,0,0.0,-999.0,95,0.00,,,-99.99,,2013-03-04 16:21:00,
2013-03-04 07:26:00,39.2,38.2,30.19,North,0,0.0,-999.0,95,0.00,,,-99.99,,2013-03-04 16:26:00,
2013-03-04 07:31:00,39.2,38.2,30.19,North,0,0.0,-999.0,95,0.00,,,-99.99,,2013-03-04 16:31:00,
2013-03-04 07:36:00,39.1,38.1,30.19,North,0,0.0,-999.0,95,0.00,,,-99.99,,2013-03-04 16:36:00,
2013-03-04 07:41:00,38.9,37.8,30.19,North,0,0.0,-999.0,95,0.00,,,-99.99,,2013-03-04 16:41:00,
2013-03-04 07:46:00,39.0,37.9,30.19,North,0,0.0,-999.0,95,0.00,,,-99.99,,2013-03-04 16:46:00,
2013-03-04 07:51:00,39.0,37.9,30.19,North,0,0.0,-999.0,95,0.00,,,-99.99,,2013-03-04 16:51:00,
2013-03-04 07:56:00,39.1,38.0,30.19,North,0,0.0,-999.0,95,0.01,,,-99.99,,2013-03-04 16:56:00,
2013-03-04 08:01:00,39.0,37.9,30.19,North,0,0.0,-999.0,95,0.00,,,-99.99,,2013-03-04 17:01:00,
2013-03-04 08:06:00,39.1,37.9,30.19,North,0,0.0,-999.0,95,0.00,,,-99.99,,2013-03-04 17:06:00,
2013-03-04 08:11:00,39.1,37.9,30.19,North,0,0.0,-999.0,95,0.00,,,-99.99,,2013-03-04 17:11:00,
2013-03-04 08:16:00,39.1,37.8,30.19,North,0,0.0,-999.0,95,0.00,,,-99.99,,2013-03-04 17:16:00,
2013-03-04 08:21:00,39.2,37.9,30.19,North,0,0.0,-999.0,95,0.00,,,-99.99,,2013-03-04 17:21:00,
2013-03-04 08:26:00,39.0,37.7,30.19,North,0,0.0,-999.0,95,0.00,,,-99.99,,2013-03-04 17:26:00,
2013-03-04 08:31:00,39.2,38.0,30.19,North,0,0.0,-999.0,95,0.00,,,-99.99,,2013-03-04 17:31:00,
2013-03-04 08:36:00,39.0,37.6,30.19,North,0,0.0,-999.0,94,0.00,,,-99.99,,2013-03-04 17:36:00,
2013-03-04 08:41:00,39.0,37.6,30.19,North,0,0.0,-999.0,94,0.00,,,-99.99,,2013-03-04 17:41:00,
2013-03-04 08:46:00,38.9,37.5,30.19,North,0,0.0,-999.0,94,0.00,,,-99.99,,2013-03-04 17:46:00,
2013-03-04 08:51:00,38.9,37.5,30.19,North,0,0.0,-999.0,94,0.00,,,-99.99,,2013-03-04 17:51:00,
2013-03-04 08:56:00,38.9,37.3,30.19,North,0,0.0,-999.0,94,0.00,,,-99.99,,2013-03-04 17:56:00,
2013-03-04 09:01:00,38.9,37.4,30.20,North,0,0.0,-999.0,94,0.00,,,-99.99,,2013-03-04 18:01:00,
2013-03-04 09:06:00,39.1,37.6,30.20,North,0,0.0,-999.0,94,0.00,,,-99.99,,2013-03-04 18:06:00,
2013-03-04 09:11:00,39.0,37.4,30.20,North,0,0.0,-999.0,93,0.00,,,-99.99,,2013-03-04 18:11:00,
2013-03-04 09:16:00,39.1,37.6,30.20,North,0,0.0,-999.0,94,0.00,,,-99.99,,2013-03-04 18:16:00,
2013-03-04 09:21:00,39.2,37.8,30.20,North,0,0.0,-999.0,94,0.00,,,-99.99,,2013-03-04 18:21:00,
2013-03-04 09:26:00,39.0,37.6,30.20,North,0,0.0,-999.0,94,0.00,,,-99.99,,2013-03-04 18:26:00,
2013-03-04 09:29:00,39.1,37.7,30.20,North,0,0.0,-999.0,94,0.00,,,-99.99,,2013-03-04 18:29:00,
2013-03-04 09:34:00,39.0,37.7,30.20,North,0,0.0,-999.0,94,0.00,,,-99.99,,2013-03-04 18:34:00,
2013-03-04 09:39:00,39.1,37.8,30.20,North,0,0.0,-999.0,95,0.00,,,-99.99,,2013-03-04 18:39:00,
2013-03-04 09:40:00,38.9,37.6,30.20,North,0,0.0,-999.0,94,0.00,,,-99.99,,2013-03-04 18:40:00,
2013-03-04 09:45:00,39.2,37.8,30.20,North,0,0.0,-999.0,94,0.00,,,-99.99,,2013-03-04 18:45:00,
2013-03-04 09:50:00,39.2,37.9,30.20,North,0,0.0,-999.0,94,0.00,,,-99.99,,2013-03-04 18:50:00,
2013-03-04 09:55:00,39.0,37.7,30.20,North,0,0.0,-999.0,95,0.00,,,-99.99,,2013-03-04 18:55:00,
2013-03-04 10:00:00,39.1,37.8,30.20,North,0,0.0,-999.0,95,0.00,,,-99.99,,2013-03-04 19:00:00,
2013-03-04 10:05:00,39.0,37.7,30.20,North,0,0.0,-999.0,95,0.00,,,-99.99,,2013-03-04 19:05:00,
2013-03-04 10:10:00,39.2,38.0,30.20,North,0,0.0,-999.0,95,0.00,,,-99.99,,2013-03-04 19:10:00,
2013-03-04 10:16:00,38.8,37.6,30.20,North,0,0.0,-999.0,95,0.00,,,-99.99,,2013-03-04 19:16:00,
2013-03-04 10:21:00,39.0,37.9,30.20,North,0,0.0,-999.0,95,0.00,,,-99.99,,2013-03-04 19:21:00,
2013-03-04 10:26:00,38.8,37.6,30.20,North,0,0.0,-999.0,95,0.00,,,-99.99,,2013-03-04 19:26:00,
2013-03-04 10:31:00,39.1,38.1,30.20,North,0,0.0,-999.0,95,0.01,,,-99.99,,2013-03-04 19:31:00,
2013-03-04 10:37:00,39.1,37.9,30.20,North,0,0.0,-999.0,95,0.01,,,-99.99,,2013-03-04 19:37:00,
2013-03-04 10:42:00,39.1,37.9,30.20,North,0,0.0,-999.0,95,0.01,,,-99.99,,2013-03-04 19:42:00,
2013-03-04 10:48:00,39.1,38.0,30.20,North,0,0.0,-999.0,95,0.01,,,-99.99,,2013-03-04 19:48:00,
2013-03-04 10:53:00,38.9,37.7,30.20,North,0,0.0,-999.0,95,0.01,,,-99.99,,2013-03-04 19:53:00,
2013-03-04 10:58:00,39.1,38.0,30.20,North,0,0.0,-999.0,95,0.01,,,-99.99,,2013-03-04 19:58:00,
2013-03-04 11:03:00,39.1,37.9,30.21,North,0,0.0,-999.0,95,0.01,,,-99.99,,2013-03-04 20:03:00,
2013-03-04 11:08:00,38.9,37.8,30.21,North,0,0.0,-999.0,95,0.01,,,-99.99,,2013-03-04 20:08:00,
2013-03-04 11:14:00,39.2,38.0,30.21,North,0,0.0,-999.0,95,0.01,,,-99.99,,2013-03-04 20:14:00,
2013-03-04 11:19:00,39.1,37.9,30.21,North,0,0.0,-999.0,95,0.01,,,-99.99,,2013-03-04 20:19:00,
2013-03-04 11:24:00,39.1,37.9,30.21,North,0,0.0,-999.0,95,0.01,,,-99.99,,2013-03-04 20:24:00,
2013-03-04 11:29:00,39.2,38.0,30.21,North,0,0.0,-999.0,95,0.01,,,-99.99,,2013-03-04 20:29:00,
2013-03-04 11:34:00,39.0,37.7,30.21,North,0,0.0,-999.0,95,0.02,,,-99.99,,2013-03-04 20:34:00,
2013-03-04 11:39:00,38.9,37.8,30.21,North,0,0.0,-999.0,95,0.02,,,-99.99,,2013-03-04 20:39:00,
2013-03-04 11:44:00,38.8,37.5,30.21,North,0,0.0,-999.0,95,0.02,,,-99.99,,2013-03-04 20:44:00,
2013-03-04 11:49:00,38.6,37.3,30.21,North,0,0.0,-999.0,94,0.03,,,-99.99,,2013-03-04 20:49:00,
2013-03-04 11:54:00,38.5,37.1,30.21,North,0,0.0,-999.0,94,0.03,,,-99.99,,2013-03-04 20:54:00,
2013-03-04 11:59:00,39.1,37.9,30.24,North,0,0.0,-999.0,95,0.00,,,-99.99,,2013-03-04 20:59:00,
2013-03-04 12:04:00,39.5,38.2,30.24,North,0,0.0,-999.0,95,0.00,,,-99.99,,2013-03-04 21:04:00,
2013-03-04 12:09:00,39.2,37.9,30.24,North,0,0.0,-999.0,94,0.00,,,-99.99,,2013-03-04 21:09:00,
2013-03-04 12:14:00,39.0,37.6,30.24,North,0,0.0,-999.0,94,0.01,,,-99.99,,2013-03-04 21:14:00,
2013-03-04 12:20:00,39.1,37.7,30.24,North,0,0.0,-999.0,94,0.01,,,-99.99,,2013-03-04 21:20:00,
2013-03-04 12:25:00,38.8,37.4,30.24,North,0,0.0,-999.0,94,0.01,,,-99.99,,2013-03-04 21:25:00,
2013-03-04 12:30:00,38.9,37.6,30.24,North,0,0.0,-999.0,95,0.01,,,-99.99,,2013-03-04 21:30:00,
2013-03-04 12:35:00,38.8,37.5,30.24,North,0,0.0,-999.0,95,0.01,,,-99.99,,2013-03-04 21:35:00,
2013-03-04 12:41:00,38.8,37.5,30.24,North,0,0.0,-999.0,94,0.01,,,-99.99,,2013-03-04 21:41:00,
2013-03-04 12:46:00,38.8,37.4,30.24,North,0,0.0,-999.0,94,0.01,,,-99.99,,2013-03-04 21:46:00,
2013-03-04 12:51:00,38.8,37.5,30.24,North,0,0.0,-999.0,94,0.01,,,-99.99,,2013-03-04 21:51:00,
2013-03-04 12:56:00,39.2,38.0,30.24,North,0,0.0,-999.0,95,0.01,,,-99.99,,2013-03-04 21:56:00,
2013-03-04 13:01:00,39.4,38.1,30.22,North,0,0.0,-999.0,94,0.01,,,-99.99,,2013-03-04 22:01:00,
2013-03-04 13:06:00,39.4,38.0,30.22,North,0,0.0,-999.0,94,0.01,,,-99.99,,2013-03-04 22:06:00,
2013-03-04 13:11:00,39.3,37.8,30.22,North,0,0.0,-999.0,94,0.01,,,-99.99,,2013-03-04 22:11:00,
2013-03-04 13:16:00,39.1,37.6,30.22,North,0,0.0,-999.0,94,0.01,,,-99.99,,2013-03-04 22:16:00,
2013-03-04 13:21:00,39.4,38.0,30.22,North,0,0.0,-999.0,94,0.01,,,-99.99,,2013-03-04 22:21:00,
2013-03-04 13:26:00,39.6,38.0,30.22,North,0,0.0,-999.0,93,0.01,,,-99.99,,2013-03-04 22:26:00,
2013-03-04 13:31:00,39.5,38.0,30.22,North,0,0.0,-999.0,94,0.01,,,-99.99,,2013-03-04 22:31:00,
2013-03-04 13:36:00,39.4,37.8,30.22,North,0,0.0,-999.0,93,0.01,,,-99.99,,2013-03-04 22:36:00,
2013-03-04 13:41:00,39.4,37.8,30.22,North,0,0.0,-999.0,93,0.01,,,-99.99,,2013-03-04 22:41:00,
2013-03-04 13:46:00,39.4,37.8,30.22,North,0,0.0,-999.0,93,0.01,,,-99.99,,2013-03-04 22:46:00,
2013-03-04 13:51:00,39.9,38.4,30.22,North,0,0.0,-999.0,94,0.01,,,-99.99,,2013-03-04 22:51:00,
2013-03-04 13:56:00,39.7,38.1,30.22,North,0,0.0,-999.0,93,0.01,,,-99.99,,2013-03-04 22:56:00,
2013-03-04 14:01:00,39.3,37.6,30.23,North,0,0.0,-999.0,93,0.00,,,-99.99,,2013-03-04 23:01:00,
2013-03-04 14:06:00,39.5,37.9,30.23,North,0,0.0,-999.0,93,0.00,,,-99.99,,2013-03-04 23:06:00,
2013-03-04 14:11:00,39.5,38.1,30.23,North,0,0.0,-999.0,94,0.00,,,-99.99,,2013-03-04 23:11:00,
2013-03-04 14:16:00,39.5,37.9,30.23,North,0,0.0,-999.0,93,0.00,,,-99.99,,2013-03-04 23:16:00,
2013-03-04 14:23:00,39.5,37.7,30.23,North,0,0.0,-999.0,93,0.00,,,-99.99,,2013-03-04 23:23:00,
2013-03-04 14:28:00,39.4,37.5,30.23,North,0,0.0,-999.0,93,0.00,,,-99.99,,2013-03-04 23:28:00,
2013-03-04 14:33:00,39.2,37.5,30.23,North,0,0.0,-999.0,93,0.00,,,-99.99,,2013-03-04 23:33:00,
2013-03-04 14:38:00,39.2,37.3,30.23,North,0,0.0,-999.0,92,0.00,,,-99.99,,2013-03-04 23:38:00,
2013-03-04 14:43:00,39.2,37.3,30.23,North,0,0.0,-999.0,92,0.00,,,-99.99,,2013-03-04 23:43:00,
2013-03-04 14:48:00,39.1,37.2,30.23,North,0,0.0,-999.0,92,0.00,,,-99.99,,2013-03-04 23:48:00,
2013-03-04 14:53:00,39.3,37.5,30.23,North,0,0.0,-999.0,93,0.00,,,-99.99,,2013-03-04 23:53:00,
2013-03-04 14:58:00,39.2,37.3,30.23,North,0,0.0,-999.0,92,0.00,,,-99.99,,2013-03-04 23:58:00,
2013-03-04 15:03:00,39.1,37.2,30.21,North,0,0.0,-999.0,92,0.00,,,-99.99,,2013-03-05 00:03:00,
2013-03-04 15:08:00,39.6,37.8,30.21,North,0,0.0,-999.0,93,0.00,,,-99.99,,2013-03-05 00:08:00,
2013-03-04 15:13:00,39.5,37.6,30.21,North,0,0.0,-999.0,92,0.00,,,-99.99,,2013-03-05 00:13:00,
2013-03-04 15:18:00,39.4,37.5,30.21,North,0,0.0,-999.0,92,0.00,,,-99.99,,2013-03-05 00:18:00,
2013-03-04 15:23:00,39.4,37.5,30.21,North,0,0.0,-999.0,92,0.00,,,-99.99,,2013-03-05 00:23:00,
2013-03-04 15:28:00,39.3,37.4,30.21,North,0,0.0,-999.0,92,0.00,,,-99.99,,2013-03-05 00:28:00,
2013-03-04 15:34:00,39.2,37.5,30.21,North,0,0.0,-999.0,93,0.00,,,-99.99,,2013-03-05 00:34:00,
2013-03-04 15:39:00,39.1,37.3,30.21,North,0,0.0,-999.0,93,0.00,,,-99.99,,2013-03-05 00:39:00,
2013-03-04 15:44:00,39.1,37.4,30.21,North,0,0.0,-999.0,93,0.00,,,-99.99,,2013-03-05 00:44:00,
2013-03-04 15:49:00,39.1,37.3,30.21,North,0,0.0,-999.0,93,0.00,,,-99.99,,2013-03-05 00:49:00,
2013-03-04 15:54:00,39.2,37.7,30.21,North,0,0.0,-999.0,93,0.00,,,-99.99,,2013-03-05 00:54:00,
2013-03-04 15:59:00,39.5,37.9,30.21,North,0,0.0,-999.0,93,0.00,,,-99.99,,2013-03-05 00:59:00,
2013-03-04 16:04:00,39.2,37.5,30.21,North,0,0.0,-999.0,93,0.00,,,-99.99,,2013-03-05 01:04:00,
2013-03-04 16:10:00,39.4,37.7,30.21,North,0,0.0,-999.0,93,0.00,,,-99.99,,2013-03-05 01:10:00,
2013-03-04 16:15:00,39.4,37.7,30.21,North,0,0.0,-999.0,93,0.00,,,-99.99,,2013-03-05 01:15:00,
2013-03-04 16:20:00,39.4,37.5,30.21,North,0,0.0,-999.0,93,0.00,,,-99.99,,2013-03-05 01:20:00,
2013-03-04 16:25:00,39.2,37.3,30.21,North,0,0.0,-999.0,92,0.00,,,-99.99,,2013-03-05 01:25:00,
2013-03-04 16:30:00,39.2,37.4,30.21,North,0,0.0,-999.0,93,0.00,,,-99.99,,2013-03-05 01:30:00,
2013-03-04 16:35:00,39.1,37.3,30.21,North,0,0.0,-999.0,93,0.00,,,-99.99,,2013-03-05 01:35:00,
2013-03-04 16:40:00,39.2,37.6,30.21,North,0,0.0,-999.0,94,0.00,,,-99.99,,2013-03-05 01:40:00,
2013-03-04 16:45:00,39.1,37.3,30.21,North,0,0.0,-999.0,93,0.00,,,-99.99,,2013-03-05 01:45:00,
2013-03-04 16:50:00,38.9,37.2,30.21,North,0,0.0,-999.0,93,0.00,,,-99.99,,2013-03-05 01:50:00,
2013-03-04 16:56:00,39.1,37.4,30.21,North,0,0.0,-999.0,93,0.00,,,-99.99,,2013-03-05 01:56:00,
2013-03-04 17:01:00,38.9,37.2,30.20,North,0,0.0,-999.0,93,0.00,,,-99.99,,2013-03-05 02:01:00,
2013-03-04 17:06:00,39.1,37.5,30.20,North,0,0.0,-999.0,94,0.00,,,-99.99,,2013-03-05 02:06:00,
2013-03-04 17:11:00,38.8,37.2,30.20,North,0,0.0,-999.0,93,0.00,,,-99.99,,2013-03-05 02:11:00,
2013-03-04 17:16:00,38.9,37.2,30.20,North,0,0.0,-999.0,93,0.00,,,-99.99,,2013-03-05 02:16:00,
2013-03-04 17:21:00,38.8,37.1,30.20,North,0,0.0,-999.0,93,0.00,,,-99.99,,2013-03-05 02:21:00,
2013-03-04 17:26:00,38.7,37.1,30.20,North,0,0.0,-999.0,93,0.00,,,-99.99,,2013-03-05 02:26:00,
2013-03-04 17:32:00,38.9,37.2,30.20,North,0,0.0,-999.0,93,0.00,,,-99.99,,2013-03-05 02:32:00,
2013-03-04 17:37:00,38.9,37.3,30.20,North,0,0.0,-999.0,93,0.00,,,-99.99,,2013-03-05 02:37:00,
2013-03-04 17:43:00,38.8,37.1,30.20,North,0,0.0,-999.0,93,0.00,,,-99.99,,2013-03-05 02:43:00,
2013-03-04 17:48:00,38.7,37.0,30.20,North,0,0.0,-999.0,93,0.00,,,-99.99,,2013-03-05 02:48:00,
2013-03-04 17:54:00,38.6,36.9,30.20,North,0,0.0,-999.0,93,0.00,,,-99.99,,2013-03-05 02:54:00,
2013-03-04 17:59:00,38.6,37.0,30.19,North,0,0.0,-999.0,93,0.00,,,-99.99,,2013-03-05 02:59:00,
2013-03-04 18:04:00,38.6,37.0,30.19,North,0,0.0,-999.0,93,0.00,,,-99.99,,2013-03-05 03:04:00,
2013-03-04 18:09:00,38.5,36.9,30.19,North,0,0.0,-999.0,93,0.00,,,-99.99,,2013-03-05 03:09:00,
2013-03-04 18:14:00,38.5,36.9,30.19,North,0,0.0,-999.0,93,0.00,,,-99.99,,2013-03-05 03:14:00,
2013-03-04 18:19:00,38.5,36.9,30.19,North,0,0.0,-999.0,93,0.00,,,-99.99,,2013-03-05 03:19:00,
2013-03-04 18:25:00,38.3,36.7,30.19,North,0,0.0,-999.0,93,0.00,,,-99.99,,2013-03-05 03:25:00,
2013-03-04 18:30:00,38.4,36.6,30.19,North,0,0.0,-999.0,93,0.00,,,-99.99,,2013-03-05 03:30:00,
2013-03-04 18:35:00,38.3,36.4,30.19,North,0,0.0,-999.0,92,0.00,,,-99.99,,2013-03-05 03:35:00,
2013-03-04 18:40:00,38.3,36.2,30.19,North,0,0.0,-999.0,92,0.00,,,-99.99,,2013-03-05 03:40:00,
2013-03-04 18:46:00,38.3,35.9,30.19,North,0,0.0,-999.0,91,0.00,,,-99.99,,2013-03-05 03:46:00,
2013-03-04 18:51:00,38.4,35.8,30.19,North,0,0.0,-999.0,90,0.00,,,-99.99,,2013-03-05 03:51:00,
2013-03-04 18:56:00,38.4,35.8,30.19,North,0,0.0,-999.0,90,0.00,,,-99.99,,2013-03-05 03:56:00,
2013-03-04 19:01:00,38.3,35.8,30.18,North,0,0.0,-999.0,90,0.00,,,-99.99,,2013-03-05 04:01:00,
2013-03-04 19:06:00,38.3,35.8,30.18,North,0,0.0,-999.0,90,0.00,,,-99.99,,2013-03-05 04:06:00,
2013-03-04 19:11:00,38.3,35.9,30.18,North,0,0.0,-999.0,90,0.00,,,-99.99,,2013-03-05 04:11:00,
2013-03-04 19:16:00,38.2,35.7,30.18,North,0,0.0,-999.0,90,0.00,,,-99.99,,2013-03-05 04:16:00,
2013-03-04 19:21:00,38.3,35.8,30.18,North,0,0.0,-999.0,90,0.00,,,-99.99,,2013-03-05 04:21:00,
2013-03-04 19:26:00,38.3,35.9,30.18,North,0,0.0,-999.0,91,0.00,,,-99.99,,2013-03-05 04:26:00,
2013-03-04 19:31:00,38.2,35.9,30.18,North,0,0.0,-999.0,91,0.00,,,-99.99,,2013-03-05 04:31:00,
2013-03-04 19:37:00,38.1,36.1,30.18,North,0,0.0,-999.0,92,0.00,,,-99.99,,2013-03-05 04:37:00,
2013-03-04 19:42:00,38.3,36.3,30.18,North,0,0.0,-999.0,92,0.00,,,-99.99,,2013-03-05 04:42:00,
2013-03-04 19:47:00,38.3,36.5,30.18,North,0,0.0,-999.0,92,0.00,,,-99.99,,2013-03-05 04:47:00,
2013-03-04 19:52:00,38.3,36.5,30.18,North,0,0.0,-999.0,93,0.00,,,-99.99,,2013-03-05 04:52:00,
2013-03-04 19:57:00,38.1,36.3,30.18,North,0,0.0,-999.0,93,0.00,,,-99.99,,2013-03-05 04:57:00,
2013-03-04 20:00:00,38.0,36.3,30.17,North,0,0.0,-999.0,93,0.00,,,-99.99,,2013-03-05 05:00:00,
2013-03-04 20:03:00,38.0,36.3,30.17,North,0,0.0,-999.0,93,0.00,,,-99.99,,2013-03-05 05:03:00,
2013-03-04 20:04:00,38.0,36.3,30.17,North,0,0.0,-999.0,93,0.00,,,-99.99,,2013-03-05 05:04:00,
2013-03-04 20:08:00,38.0,36.2,30.17,North,0,0.0,-999.0,93,0.00,,,-99.99,,2013-03-05 05:08:00,
2013-03-04 20:13:00,37.9,36.2,30.17,North,0,0.0,-999.0,93,0.00,,,-99.99,,2013-03-05 05:13:00,
2013-03-04 20:18:00,37.9,36.2,30.17,North,0,0.0,-999.0,93,0.00,,,-99.99,,2013-03-05 05:18:00,
2013-03-04 20:23:00,37.8,36.2,30.17,North,0,0.0,-999.0,93,0.00,,,-99.99,,2013-03-05 05:23:00,
2013-03-04 20:28:00,37.8,36.1,30.17,North,0,0.0,-999.0,93,0.00,,,-99.99,,2013-03-05 05:28:00,
2013-03-04 20:33:00,37.7,36.1,30.17,North,0,0.0,-999.0,93,0.00,,,-99.99,,2013-03-05 05:33:00,
2013-03-04 20:38:00,37.7,36.0,30.17,North,0,0.0,-999.0,93,0.00,,,-99.99,,2013-03-05 05:38:00,
2013-03-04 20:43:00,37.6,36.0,30.17,North,0,0.0,-999.0,93,0.00,,,-99.99,,2013-03-05 05:43:00,
2013-03-04 20:48:00,37.5,35.8,30.17,North,0,0.0,-999.0,93,0.00,,,-99.99,,2013-03-05 05:48:00,
2013-03-04 20:53:00,37.2,35.5,30.17,North,0,0.0,-999.0,93,0.00,,,-99.99,,2013-03-05 05:53:00,
2013-03-04 20:58:00,37.2,35.3,30.17,North,0,0.0,-999.0,92,0.00,,,-99.99,,2013-03-05 05:58:00,
2013-03-04 21:03:00,37.3,35.4,30.13,North,0,0.0,-999.0,92,0.00,,,-99.99,,2013-03-05 06:03:00,
2013-03-04 21:08:00,37.0,35.0,30.13,North,0,0.0,-999.0,92,0.00,,,-99.99,,2013-03-05 06:08:00,
2013-03-04 21:13:00,37.1,35.0,30.13,North,0,0.0,-999.0,92,0.00,,,-99.99,,2013-03-05 06:13:00,
2013-03-04 21:18:00,36.8,34.7,30.13,North,0,0.0,-999.0,91,0.00,,,-99.99,,2013-03-05 06:18:00,
2013-03-04 21:23:00,37.2,35.1,30.13,North,0,0.0,-999.0,92,0.00,,,-99.99,,2013-03-05 06:23:00,
2013-03-04 21:28:00,37.0,34.8,30.13,North,0,0.0,-999.0,91,0.00,,,-99.99,,2013-03-05 06:28:00,
2013-03-04 21:33:00,36.8,34.7,30.13,North,0,0.0,-999.0,91,0.00,,,-99.99,,2013-03-05 06:33:00,
2013-03-04 21:38:00,36.7,34.6,30.13,North,0,0.0,-999.0,91,0.00,,,-99.99,,2013-03-05 06:38:00,
2013-03-04 21:43:00,36.7,34.4,30.13,North,0,0.0,-999.0,91,0.00,,,-99.99,,2013-03-05 06:43:00,
2013-03-04 21:48:00,36.8,34.4,30.13,North,0,0.0,-999.0,90,0.00,,,-99.99,,2013-03-05 06:48:00,
2013-03-04 21:53:00,37.0,34.5,30.13,North,0,0.0,-999.0,90,0.00,,,-99.99,,2013-03-05 06:53:00,
2013-03-04 21:58:00,37.0,34.5,30.13,North,0,0.0,-999.0,90,0.00,,,-99.99,,2013-03-05 06:58:00,
2013-03-04 22:03:00,37.0,34.5,30.15,North,0,0.0,-999.0,90,0.00,,,-99.99,,2013-03-05 07:03:00,
2013-03-04 22:08:00,37.0,34.6,30.15,North,0,0.0,-999.0,90,0.00,,,-99.99,,2013-03-05 07:08:00,
2013-03-04 22:13:00,37.1,34.8,30.15,North,0,0.0,-999.0,91,0.00,,,-99.99,,2013-03-05 07:13:00,
2013-03-04 22:18:00,37.0,34.6,30.15,North,0,0.0,-999.0,90,0.00,,,-99.99,,2013-03-05 07:18:00,
2013-03-04 22:23:00,36.9,34.6,30.15,North,0,0.0,-999.0,91,0.00,,,-99.99,,2013-03-05 07:23:00,
2013-03-04 22:28:00,37.0,34.7,30.15,North,0,0.0,-999.0,91,0.00,,,-99.99,,2013-03-05 07:28:00,
2013-03-04 22:33:00,36.8,34.8,30.15,North,0,0.0,-999.0,92,0.00,,,-99.99,,2013-03-05 07:33:00,
2013-03-04 22:38:00,36.7,34.6,30.15,North,0,0.0,-999.0,92,0.00,,,-99.99,,2013-03-05 07:38:00,
2013-03-04 22:43:00,36.8,34.9,30.15,North,0,0.0,-999.0,92,0.00,,,-99.99,,2013-03-05 07:43:00,
2013-03-04 22:49:00,37.0,35.1,30.15,North,0,0.0,-999.0,92,0.00,,,-99.99,,2013-03-05 07:49:00,
2013-03-04 22:54:00,36.6,34.8,30.15,North,0,0.0,-999.0,93,0.00,,,-99.99,,2013-03-05 07:54:00,
2013-03-04 22:59:00,36.7,34.8,30.15,North,0,0.0,-999.0,93,0.00,,,-99.99,,2013-03-05 07:59:00,
2013-03-04 23:04:00,36.5,34.7,30.15,North,0,0.0,-999.0,93,0.00,,,-99.99,,2013-03-05 08:04:00,
2013-03-04 23:09:00,36.8,35.0,30.15,North,0,0.0,-999.0,92,0.00,,,-99.99,,2013-03-05 08:09:00,
2013-03-04 23:14:00,36.8,35.2,30.15,North,0,0.0,-999.0,93,0.00,,,-99.99,,2013-03-05 08:14:00,
2013-03-04 23:19:00,36.8,35.0,30.15,North,0,0.0,-999.0,93,0.00,,,-99.99,,2013-03-05 08:19:00,
2013-03-04 23:24:00,36.7,34.8,30.15,North,0,0.0,-999.0,92,0.00,,,-99.99,,2013-03-05 08:24:00,
2013-03-04 23:29:00,36.6,34.8,30.15,North,0,0.0,-999.0,93,0.00,,,-99.99,,2013-03-05 08:29:00,
2013-03-04 23:34:00,36.7,35.0,30.15,North,0,0.0,-999.0,93,0.00,,,-99.99,,2013-03-05 08:34:00,
2013-03-04 23:39:00,36.8,34.9,30.15,North,0,0.0,-999.0,92,0.00,,,-99.99,,2013-03-05 08:39:00,
2013-03-04 23:44:00,36.8,34.9,30.15,North,0,0.0,-999.0,92,0.00,,,-99.99,,2013-03-05 08:44:00,
2013-03-04 23:50:00,37.0,35.1,30.15,North,0,0.0,-999.0,92,0.00,,,-99.99,,2013-03-05 08:50:00,
2013-03-04 23:55:00,37.0,35.1,30.15,North,0,0.0,-999.0,92,0.00,,,-99.99,,2013-03-05 08:55:00,